Regional Weather Roundup
Issued by NWS Wakefield, VA

Home | Current Version | Previous Version | Graphics & Text | Print | Product List | Glossary Off
Versions: 1 2 3 4 5 6 7 8 9 10 11 12 13 14 15 16 17 18 19 20 21 22 23 24 25 26 27 28 29 30 31 32 33 34 35 36 37 38 39 40 41 42 43 44 45 46 47 48 49 50

656
ASUS41 KAKQ 250815
RWRAKQ

REGIONAL WEATHER ROUNDUP
NATIONAL WEATHER SERVICE WAKEFIELD VA
300 AM EST SUN FEB 25 2018

Note: "fair" indicates few or no clouds below 12,000 feet with no
significant weather and/or obstructions to visibility. * = Denotes
station may not report precipitation (e.g., rain,snow,etc.),
thunder or fog.

VAZ042-051-052>054-056-250900-
NORTHERN VIRGINIA

CITY           SKY/WX    TMP DP  RH WIND       PRES   REMARKS
WASH NATIONAL  CLOUDY    49  47  93 SE6       30.05F
DULLES         CLOUDY    47  47 100 SE3       30.04F FOG
FORT BELVOIR   CLOUDY    48  46  95 CALM      30.04F
QUANTICO       CLOUDY    49  48  97 SE6       30.05F
FREDERICKSBRG* FOG       48  48 100 E5        30.02F VSB 3/4
STAFFORD*      CLOUDY    48  48 100 E5        30.07F FOG
WARRENTON      CLOUDY    49  46  92 CALM      30.03F FOG
CULPEPER*      CLOUDY    49  47  95 CALM      30.05F FOG
MANASSAS*      CLOUDY    47  47 100 CALM      30.04F FOG
LEESBURG*      CLOUDY    45  45 100 CALM      30.05F FOG
WINCHESTER     CLOUDY    43  43 100 CALM      30.04F FOG
FRONT ROYAL*   CLOUDY    45  45 100 CALM      30.01F
LURAY*         CLOUDY    46  46 100 CALM      30.01F FOG
$$

VAZ048-049-060>072-079>083-250900-
CENTRAL AND SOUTH CENTRAL VIRGINIA

CITY           SKY/WX    TMP DP  RH WIND       PRES   REMARKS
RICHMOND       CLOUDY    54  53  97 SE3       30.01F FOG
CHESTERFIELD*  FOG       55  54  96 SE5       30.02F VSB 1/4
PETERSBURG*    FOG       53  51  94 CALM      30.02F VSB 1/2
HANOVER        FOG       52  52 100 CALM      30.03F VSB 1/4
TAPPAHANNOCK*  CLOUDY    50  50 100 E3        30.04F FOG
QUINTON*       CLOUDY    52  52 100 E5        30.01F FOG
CHARLOTTSVILLE CLOUDY    49  48  97 CALM      30.03F FOG
GORDONSVILLE*  CLOUDY    48  48 100 CALM      30.03F FOG
ORANGE*        CLOUDY    46  46 100 CALM      30.04S FOG
LOUISA*        FOG       49  48  99 NW5       30.07F VSB 1/2
BUMPASS*       CLOUDY    49  48  95 CALM      30.02F VSB 1/2
FARMVILLE*     FOG      N/A N/A N/A CALM      30.01F VSB 1/2
CREWE*         CLOUDY    54  54 100 CALM      30.02S
FORT PICKETT*  FAIR     N/A N/A N/A CALM      30.01F
CHASE CITY*    FAIR      65  61  86 CALM      30.00F
CLARKSVILLE*   FAIR      64  61  88 S8G17     29.99F
SOUTH HILL*    FAIR      63  62  96 S10       30.07F
LAWRENCEVILLE* FAIR      64  61  90 S5        30.01F
EMPORIA*       FAIR      64  61  88 SE7       30.04S
$$

VAZ088>098-250900-
SOUTHEAST VIRGINIA

CITY           SKY/WX    TMP DP  RH WIND       PRES   REMARKS
NORFOLK        FAIR      51  49  92 S3        30.03F
VIRGINIA BEACH FAIR      51  47  86 S5        30.03F
NORFOLK NAVAL  FAIR      50  46  86 CALM      30.05F
WEST POINT*    CLOUDY    51  51  97 SE3       30.05F
SALUDA*        CLOUDY    48  48 100 CALM      30.03F VSB 1/2
NEWPORT NEWS   FAIR      50  48  93 CALM      30.03F
LANGLEY AFB    MOCLDY    51  51 100 CALM      30.04F
FORT EUSTIS    FAIR      52  49  92 CALM      30.01F
WILLIAMSBURG*  FAIR      54  48  82 CALM      30.04F
HR EXEC AP*    PTSUNNY   53  51  93 S3        30.05F
FRANKLIN*      FAIR      63  61  91 S8        30.04F
US460-WAKEFLD  FAIR      55  54  96 CALM      30.03F
$$

VAZ020-022-025-037-045-250900-
WEST CENTRAL AND SOUTHWEST VIRGINIA

CITY           SKY/WX    TMP DP  RH WIND       PRES   REMARKS
STAUNTON*      CLOUDY    46  45  97 CALM      30.03F FOG
WAYNESBORO*    CLOUDY    46  46  99 E5        30.00F
HOT SPRINGS VA DRZL/FOG  54  54 100 S15G22    29.99F VSB<1/4
LYNCHBURG      CLOUDY    49  49 100 N9        30.01F FOG
DANVILLE       FAIR      66  59  78 S10G20    30.00F
SOUTH BOSTON*  FAIR      67  57  70 S8        29.99F
MARTINSVILLE   MOCLDY    65  56  71 S6        30.02F
ROANOKE        MOCLDY    58  55  90 SE8       29.98F
BLACKSBURG     MOCLDY    65  57  77 S8        30.01F
DUBLIN*        MOCLDY    65  57  76 S10G16    29.98F
MARION*        CLOUDY    66  52  60 CALM      29.98F
HILLSVILLE*    CLOUDY    62  57  83 S8G18     29.99F
RICHLANDS*     RAIN      64  53  66 SW14G21   29.96R
WISE*          LGT RAIN  61  61 100 SW12G18   29.95F
ABINGDON*      LGT RAIN  67  56  66 NW10      29.95R
$$

MDZ021>025-VAZ099-100-250900-
SOUTHERN MARYLAND AND THE DELMARVA PENINSULA

CITY           SKY/WX    TMP DP  RH WIND       PRES   REMARKS
PATUXENT RIVER CLOUDY    47  47 100 SE7       30.02F FOG
BAY BRIDGE APT CLOUDY    46  45  93 E5        30.04F FOG
LEONARDTOWN    CLOUDY    46  45  93 SE3       30.04F
DOVER          CLOUDY    46  45  93 E13       30.05F
GEORGETOWN     FOG       46  45  96 E9        30.06F VSB 3/4
EASTON         CLOUDY    47  46  93 SE6       30.07F FOG
CAMBRIDGE      NOT AVBL
SALISBURY      FOG       48  48 100 E7        30.04F VSB 1/2
OCEAN CITY     FOG       46  46 100 NE6       30.06F VSB 1/2
WALLOPS ISLAND FOG       50  50 100 NE8       30.05F VSB 1/2
ACCOMACK*      CLOUDY    49  49  99 CALM      30.04F FOG
$$

NCZ012>017-030>032-250900-
NORTH CENTRAL AND EASTERN NORTH CAROLINA

CITY           SKY/WX    TMP DP  RH WIND       PRES   REMARKS
ROANOKE RAPIDS FAIR      63  61  94 S12       30.04F
RALEIGH        FAIR      64  58  80 SW12      30.05F
ELIZABETH CITY FAIR      64  63  96 S13       30.06F
AHOSKIE*       FAIR      63  60  91 S7        30.05F
EDENTON*       FAIR      65  62  90 S7        30.09S
CURRITUCK*     FAIR      61  58  91 S7        30.07F
KILL DEVIL HLS FAIR     N/A N/A N/A SW8       30.08F
MANTEO         FAIR      60  60  98 SW10      30.10F
CAPE HATTERAS  FAIR      65  64  97 SW8       30.12F
TARBORO*       NOT AVBL
GOLDSBORO      FAIR      65  61  89 SW10      30.07F
WASHINGTON     FAIR      64  62  93 SW7       30.10S
GREENVILLE     FAIR      64  63  94 SW9       30.10S
NEW BERN       FAIR      64  63  96 S7        30.12F
WILMINGTON     FAIR      65  63  93 SW7       30.13F
$$

VAZ048-250900-
ELSEWHERE

CITY           SKY/WX    TMP DP  RH WIND       PRES   REMARKS
HARRISBURG PA  LGT RAIN  45  43  93 E5        30.05F FOG
BALTIMORE      CLOUDY    46  45  96 E8        30.04F FOG
ANNAPOLIS      CLOUDY    49  47  93 E6        30.04F
ANDREWS AFB    CLOUDY    46  46 100 E5        30.03F
PHILADELPHIA   LGT RAIN  45  43  93 E12       30.10F
HENDERSON NC   FAIR      62  56  81 S12G18    30.02F
GREENSBORO     MOCLDY    63  59  87 S13       30.01F
ROCKY MOUNT    FAIR      64  60  87 S10       30.07F
$$

VAZ100-250900-
MARINE

STATION/POSITION TIME  TEMP    WIND        PRES    WAVE   SWELL
                       AIR SEA DIR/SP/G            HT/PER HT/PER
                 (UTC) (F)     (DEG/KT/KT) (MB)    (FT/S) (FT/S)
BRANDYWINE LGT   0742   45      90/ 16/ 17 1018.5F
CAPE MAY NJ      0748   45 44   80/ 12/ 17 1017.9F
LEWES DE         0748   44 45   90/ 13/ 16 1017.9F
15NM E FENWICK I 0750   45 44   50/ 12/ 14 1017.9F   3/ 4   2/ 8
OCEAN-CITY-INLET 0748   45 43   50/  4/  6 1018.3F
WACHAPREAGUE VA  0748   47 51   60/  5/  6 1017.3F
THOMAS POINT MD  0800   46 42  110/  5/  6   N/A
GOOSES REEF MD   0800   45 42  150/  4/  4 1019.3    0
COVE POINT MD    0748   46     140/  5/  8 1017.6F
SOLOMONS ISLAND  0748   45 44  100/  5/  6 1016.5F
BISHOPS HEAD MD  0748   48 50   80/  7/  9 1017.4F
PINEY POINT MD   0742          130/  6/  7   N/A
POTOMAC MD       0800   45 44  230/  4/  4 1018.0    0
CAMBRIDGE MD     0748   46 48              1017.9F
LEWISETTA VA     0748   47 49  120/  6/  6 1016.8F
RAPPAHANNOCK LGT 0748          110/  2/  2 1017.6F
YORK RVR RNG VA  0748   47     110/  3/  3 1017.7F
YORKTOWN VA      0748   49 47   90/  4/  5 1016.8F
DOMINION TERM VA 0748   50      90/  1/  2 1017.3F
KIPTOPEKE VA     0748      47  330/  3/  3   N/A
CAPE HENRY VA    0748   57     180/  9/ 11   N/A
WILLOUBY STN VA  0748   48     110/  2/  2 1017.1F
S CRANEY ISL VA  0748   52     150/  1/  1 1017.1F
CAPE HENRY BUOY  0800      46                N/A     3/ 8
CAPE CHARLES BUO 0751      45                N/A     2/ 9   2/11
64NM E OF VA BCH 0750   54 50  210/ 14/ 14 1018.7F   3/ 8   2/ 8
DUCK PIER NC     0748   65 46  210/ 13/ 17 1018.1F
44100 DUCK FRF   0745      49                N/A     3/10
44056 DUCK FRF   0800      46                N/A     2/10   2/11
OREGON INLET NC  0742   60 61  200/ 11/ 13 1019.4F
HATTERAS NC      0748   64 62  230/  7/ 11 1019.8F
DIAMOND SHLS NC  0750   72 73  240/ 16/ 19 1020.2F   4/ 9   3/ 9
CAPE LOOKOUT NC  0800          220/  9/ 13 1020.5F
$$




USA.gov is the U.S. government's official web portal to all federal, state and local government web resources and services.